Falls City, NE

4:39 AM CST on February 26, 2017 (GMT -0600)
Brenner

Weather History for KFNB - February, 2014

Change the Weather History Date:

Friday, February 14, 2014

  Actual Average Record
Temperature  
Mean Temperature 26 °F -  
Max Temperature 34 °F 41 °F 77 °F (1954)
Min Temperature 18 °F 21 °F -2 °F (2007)
Degree Days  
Heating Degree Days 38    
Moisture  
Dew Point 20 °F    
Average Humidity 76    
Maximum Humidity 89    
Minimum Humidity 61    
Precipitation  
Precipitation 0.00 in - - ()
Sea Level Pressure  
Sea Level Pressure 29.93 in    
Wind  
Wind Speed 11 mph (North)    
Max Wind Speed 17 mph    
Max Gust Speed 28 mph    
Visibility 10 miles    
Events      
Averages and records for this station are not official NWS values.
T = Trace of Precipitation, MM = Missing Value Source: NWS Daily Summary

Daily Weather History Graph

Daily Weather History Graph

Search for Another Location

Airport or City:

Trip Planner

Search our weather history database for the weather conditions in past years. The results will help you decide how hot, cold, wet, or windy it might be!

Date:

Astronomy

Feb. 14, 2014 Rise Set
Actual Time 7:16 AM CST 5:57 PM CST
Civil Twilight 6:48 AM CST 6:24 PM CST
Nautical Twilight 6:16 AM CST 6:56 PM CST
Astronomical Twilight 5:45 AM CST 7:28 PM CST
Moon 6:01 PM CST (2/14) 6:44 AM CST (2/14)
Length of Visible Light 11h 36m
Length of Day
10h 40m
Full, 100% of the Moon is Illuminated
Feb 14
Full
Feb 14
Full
Feb 22
Last Quarter
Mar 1
New
Mar 8
First Quarter

Hourly Weather History & Observations

Time (CST) Temp. Windchill Dew Point Humidity Pressure Visibility Wind Dir Wind Speed Gust Speed Precip Events Conditions
12:53 AM 34.0 °F 26.0 °F 30.0 °F 85% 29.66 in 10.0 mi ESE 10.4 mph - 0.00 in   Overcast
1:53 AM 33.1 °F 26.1 °F 30.0 °F 89% 29.64 in 10.0 mi NNE 8.1 mph - N/A   Mostly Cloudy
2:53 AM 33.1 °F 24.4 °F 28.9 °F 85% 29.60 in 10.0 mi ENE 11.5 mph - N/A   Mostly Cloudy
3:53 AM 32.0 °F 25.6 °F 27.0 °F 82% 29.62 in 10.0 mi NNE 6.9 mph - N/A   Partly Cloudy
4:53 AM 30.0 °F 23.2 °F 25.0 °F 82% 29.65 in 10.0 mi NNE 6.9 mph - 0.00 in   Mostly Cloudy
5:53 AM 27.0 °F 18.7 °F 23.0 °F 85% 29.71 in 10.0 mi NNW 8.1 mph - N/A   Clear
6:21 AM 27.0 °F 15.6 °F 23.0 °F 85% 29.75 in 10.0 mi NNW 13.8 mph 20.7 mph N/A   Scattered Clouds
6:30 AM 27.0 °F 15.6 °F 24.1 °F 89% 29.75 in 10.0 mi NNW 13.8 mph 21.9 mph N/A   Mostly Cloudy
6:53 AM 27.0 °F 14.7 °F 23.0 °F 85% 29.79 in 10.0 mi NNW 16.1 mph 25.3 mph N/A   Overcast
7:09 AM 27.0 °F 14.7 °F 21.9 °F 81% 29.78 in 10.0 mi North 16.1 mph 27.6 mph N/A   Overcast
7:53 AM 26.1 °F 14.0 °F 21.0 °F 81% 29.85 in 10.0 mi NNW 15.0 mph 20.7 mph N/A   Overcast
8:53 AM 24.1 °F 10.6 °F 19.0 °F 81% 29.89 in 10.0 mi North 17.3 mph 23.0 mph N/A   Overcast
9:49 AM 24.8 °F 14.6 °F 17.6 °F 74% 29.90 in 10.0 mi NNW 10.4 mph 20.7 mph N/A   Overcast
9:53 AM 24.1 °F 12.5 °F 18.0 °F 77% 29.93 in 10.0 mi North 12.7 mph 21.9 mph N/A   Overcast
10:15 AM 24.1 °F 11.5 °F 18.0 °F 77% 29.92 in 10.0 mi North 15.0 mph - N/A   Overcast
10:53 AM 25.0 °F 12.2 °F 18.0 °F 75% 29.99 in 10.0 mi North 16.1 mph - N/A   Overcast
11:53 AM 26.1 °F 14.5 °F 18.0 °F 71% 30.01 in 10.0 mi North 13.8 mph - N/A   Overcast
12:09 PM 27.0 °F 15.6 °F 18.0 °F 69% 29.98 in 10.0 mi North 13.8 mph - N/A   Mostly Cloudy
12:44 PM 27.0 °F 14.7 °F 18.0 °F 69% 29.99 in 10.0 mi North 16.1 mph 21.9 mph N/A   Mostly Cloudy
12:53 PM 28.0 °F 17.0 °F 18.0 °F 66% 30.03 in 10.0 mi North 13.8 mph - N/A   Mostly Cloudy
1:53 PM 28.0 °F 18.1 °F 18.0 °F 66% 30.03 in 10.0 mi North 11.5 mph 20.7 mph N/A   Overcast
2:53 PM 28.9 °F 18.6 °F 19.0 °F 67% 30.04 in 10.0 mi NW 12.7 mph - N/A   Mostly Cloudy
3:08 PM 28.9 °F 19.2 °F 18.0 °F 64% 30.03 in 10.0 mi NNW 11.5 mph - N/A   Scattered Clouds
3:45 PM 30.0 °F 21.1 °F 18.0 °F 61% 30.04 in 10.0 mi NNW 10.4 mph - N/A   Mostly Cloudy
3:53 PM 28.9 °F 19.2 °F 18.0 °F 64% 30.07 in 10.0 mi NNW 11.5 mph 19.6 mph N/A   Mostly Cloudy
4:00 PM 30.0 °F 20.0 °F 18.0 °F 61% 30.04 in 10.0 mi NNW 12.7 mph - N/A   Scattered Clouds
4:53 PM 28.9 °F 19.8 °F 18.0 °F 64% 30.07 in 10.0 mi NNW 10.4 mph - N/A   Partly Cloudy
5:53 PM 27.0 °F 20.5 °F 17.1 °F 66% 30.10 in 10.0 mi North 5.8 mph - N/A   Clear
6:53 PM 24.1 °F 18.2 °F 16.0 °F 71% 30.12 in 10.0 mi NW 4.6 mph - N/A   Clear
7:53 PM 24.1 °F - 16.0 °F 71% 30.11 in 10.0 mi Calm Calm - N/A   Clear
8:53 PM 19.9 °F - 14.0 °F 78% 30.13 in 10.0 mi Calm Calm - N/A   Clear
9:53 PM 19.0 °F 13.9 °F 14.0 °F 81% 30.14 in 10.0 mi ENE 3.5 mph - N/A   Clear
10:53 PM 19.0 °F 11.1 °F 15.1 °F 85% 30.13 in 10.0 mi South 5.8 mph - N/A   Clear
11:53 PM 18.0 °F 12.7 °F 14.0 °F 84% 30.13 in 10.0 mi SSE 3.5 mph - N/A   Clear